Station FRDW1 - 9449880 - Friday Harbor, WA Image indicating link to RSS feed of recent meteorological observations for station FRDW1


Conditions at FRDW1 as of
(3:36 pm PDT)
2236 GMT on 05/23/2024:
     

Click on the graph icon in the table below to see a time series plot of the last five days of that observation.

5-day plot - Wind Direction Wind Direction (WDIR): S ( 170 deg true )
5-day plot - Wind Speed Wind Speed (WSPD): 6.0 kts
5-day plot - Wind Gust Wind Gust (GST): 9.9 kts
5-day plot - Atmospheric Pressure Atmospheric Pressure (PRES):30.12 in
5-day plot - Air Temperature Air Temperature (ATMP): 54.7 °F
5-day plot - Water Temperature Water Temperature (WTMP): 50.0 °F
5-day plot - Wind Speed at 10 Meters Wind Speed at 10 meters (WSPD10M): 5.8 kts
5-day plot - Wind Speed at 20 Meters Wind Speed at 20 meters (WSPD20M): 7.8 kts
5-day plot -  Wind Speed, Wind Gust and Atmospheric Pressure Combined plot of Wind Speed, Gust, and Air Pressure
NOS Water Level Observation Network Water Level
Previous observations
TIME
(PDT)
5-day plot - Wind Direction
WDIR
 
5-day plot - Wind Speed
WSPD
kts
5-day plot - Wind Gust
GST
kts
5-day plot - Wave Height
WVHT
ft
5-day plot - Dominant Wave Period
DPD
sec
5-day plot - Average Wave Period
APD
sec
5-day plot - Mean Wave Direction
MWD
 
5-day plot - Atmospheric Pressure
PRES
in
5-day plot - Pressure Tendency
PTDY
in
5-day plot - Air Temperature
ATMP
°F
5-day plot - Water Temperature
WTMP
°F
5-day plot - Dew Point
DEWP
°F
5-day plot - Salinity
SAL
psu
5-day plot - Visibility
VIS
nmi
5-day plot - Tide (above MLLW)
TIDE
ft
2024-05-23 03:30 pm S 6.0 9.9----30.12- 54.9 50.0----
2024-05-23 03:24 pmSSW 8.0 12.0----30.12- 54.3 50.0----
2024-05-23 03:18 pmSSW 5.1 8.0----30.13- 54.5 50.0----
2024-05-23 03:12 pmSSW 5.1 8.9----30.13- 54.5 50.0----
2024-05-23 03:06 pm S 5.1 9.9----30.13- 54.3 50.0----
2024-05-23 03:00 pm S 5.1 8.9----30.13-0.01 54.1 50.0----
2024-05-23 02:54 pm S 8.0 11.1----30.13- 54.0 50.0----
2024-05-23 02:48 pm S 7.0 12.0----30.13- 54.0 50.0----
2024-05-23 02:42 pmSSW 5.1 11.1----30.13- 54.1 50.0----
2024-05-23 02:36 pmSSW 5.1 8.9----30.13- 54.0 50.2----
2024-05-23 02:30 pm S 7.0 13.0----30.14- 54.0 50.5----
2024-05-23 02:24 pmSSW 5.1 12.0----30.14- 54.1 50.7----
2024-05-23 02:18 pm SW 6.0 9.9----30.14- 54.3 50.9----
2024-05-23 02:12 pmSSW 4.1 8.0----30.14- 54.3 50.9----
2024-05-23 02:06 pm S 5.1 12.0----30.14- 54.0 50.9----
2024-05-23 02:00 pmSSW 5.1 7.0----30.14-0.01 53.8 50.9----
2024-05-23 01:54 pm S 5.1 11.1----30.14- 53.2 50.9----
2024-05-23 01:48 pmSSW 7.0 11.1----30.14- 53.1 50.9----
2024-05-23 01:42 pmSSE 6.0 9.9----30.14- 52.9 50.7----
2024-05-23 01:36 pmSSE 6.0 8.9----30.14- 52.5 50.9----
2024-05-23 01:30 pm S 6.0 9.9----30.14- 52.5 50.9----
2024-05-23 01:24 pm S 6.0 9.9----30.14- 52.3 50.9----
2024-05-23 01:18 pmSSE 6.0 9.9----30.14- 52.3 50.9----
2024-05-23 01:12 pmSSE 7.0 8.9----30.14- 52.3 50.7----
2024-05-23 01:06 pm SE 6.0 8.9----30.15- 52.3 50.7----
2024-05-23 01:00 pmSSE 7.0 11.1----30.15+0.00 52.3 50.7----
2024-05-23 12:54 pm SE 6.0 9.9----30.15- 52.0 50.7----
2024-05-23 12:48 pmSSE 6.0 9.9----30.15- 52.3 50.9----
2024-05-23 12:42 pmSSE 7.0 9.9----30.15- 52.3 50.9----
2024-05-23 12:36 pm SE 6.0 8.9----30.15- 52.2 50.9----
2024-05-23 12:30 pmSSE 7.0 11.1----30.15- 52.0 51.1----
2024-05-23 12:24 pmSSE 8.0 9.9----30.15- 51.8 50.9----
2024-05-23 12:18 pmSSE 7.0 8.9----30.15- 51.8 50.5----
2024-05-23 12:12 pmSSE 5.1 8.9----30.15- 52.0 50.9----
2024-05-23 12:06 pmSSE 6.0 7.0----30.15- 51.6 50.9----
2024-05-23 12:00 pm SE 5.1 8.0----30.15+0.00 51.4 50.9----
2024-05-23 11:54 am SE 6.0 8.0----30.15- 51.6 50.9----
2024-05-23 11:48 am SE 7.0 11.1----30.15- 51.4 50.9----
2024-05-23 11:42 am SE 6.0 11.1----30.15- 51.6 50.9----
2024-05-23 11:36 amSSE 8.0 11.1----30.15- 51.3 50.9----
2024-05-23 11:30 amSSE 7.0 9.9----30.15- 51.4 50.9----
2024-05-23 11:24 amSSE 7.0 9.9----30.15- 51.1 50.7----
2024-05-23 11:18 amSSE 7.0 9.9----30.15- 50.9 50.5----
2024-05-23 11:12 amSSE 6.0 8.9----30.15- 50.7 50.5----
2024-05-23 11:06 amSSE 6.0 8.9----30.16- 50.5 50.5----
2024-05-23 11:00 am S 7.0 9.9----30.16+0.02 50.5 50.5----
2024-05-23 10:54 am SE 8.0 9.9----30.16- 50.5 50.5----
2024-05-23 10:48 amSSE 8.0 11.1----30.15- 50.7 50.5----
2024-05-23 10:42 amSSE 8.0 9.9----30.15- 50.5 50.5----
2024-05-23 10:36 am SE 8.0 11.1----30.15- 50.4 50.5----
2024-05-23 10:30 am SE 7.0 8.9----30.15- 50.4 50.5----
2024-05-23 10:24 am S 5.1 8.0----30.15- 50.5 50.5----
2024-05-23 10:18 amSSE 5.1 8.0----30.16- 50.4 50.5----
2024-05-23 10:12 amSSE 6.0 8.0----30.16- 50.4 50.5----
2024-05-23 10:06 am S 7.0 9.9----30.16- 50.4 50.5----
2024-05-23 10:00 amSSE 7.0 11.1----30.15+0.02 50.2 50.5----
2024-05-23 09:54 am S 7.0 9.9----30.15- 50.2 50.5----
2024-05-23 09:48 amSSE 7.0 11.1----30.15- 50.2 50.5----
2024-05-23 09:42 amSSE 7.0 11.1----30.15- 50.2 50.5----
2024-05-23 09:36 amSSE 8.9 13.0----30.15- 50.0 50.5----
2024-05-23 09:30 amSSE 7.0 12.0----30.15- 50.0 50.5----
2024-05-23 09:24 amSSE 8.0 11.1----30.15- 50.0 50.5----
2024-05-23 09:18 amSSE 8.0 11.1----30.15- 50.0 50.4----
2024-05-23 09:12 am S 8.0 13.0----30.15- 50.0 50.4----
2024-05-23 09:06 am S 8.0 14.0----30.15- 50.2 50.4----
2024-05-23 09:00 am S 7.0 15.9----30.15+0.04 50.5 50.4----
2024-05-23 08:54 am S 8.9 12.0----30.15- 50.4 50.4----
2024-05-23 08:48 am S 7.0 11.1----30.15- 50.4 50.4----
2024-05-23 08:42 am S 8.9 12.0----30.15- 50.4 50.4----
2024-05-23 08:36 am S 8.9 12.0----30.15- 50.5 50.4----
2024-05-23 08:30 am S 8.0 13.0----30.15- 50.2 50.4----
2024-05-23 08:24 am S 8.0 14.0----30.14- 50.5 50.4----
2024-05-23 08:18 am S 8.9 12.0----30.14- 50.4 50.4----
2024-05-23 08:12 am S 7.0 11.1----30.14- 50.5 50.4----
2024-05-23 08:06 am S 8.0 12.0----30.14- 50.4 50.2----
2024-05-23 08:00 amSSE 8.9 11.1----30.14+0.03 50.2 50.2----
2024-05-23 07:54 amSSE 8.0 11.1----30.14- 50.2 50.2----
2024-05-23 07:48 amSSE 8.0 12.0----30.14- 50.2 50.2----
2024-05-23 07:42 amSSE 8.0 12.0----30.14- 50.2 50.2----
2024-05-23 07:36 amSSE 8.0 12.0----30.14- 50.0 50.2----
2024-05-23 07:30 amSSE 7.0 13.0----30.14- 50.0 50.2----
2024-05-23 07:24 amSSE 8.0 12.0----30.13- 49.8 50.2----
2024-05-23 07:18 amSSE 8.0 11.1----30.13- 49.6 50.2----
2024-05-23 07:12 amSSE 7.0 9.9----30.13- 49.5 50.2----
2024-05-23 07:06 amSSE 7.0 8.9----30.13- 49.5 50.2----
2024-05-23 07:00 amSSE 8.0 12.0----30.13+0.03 49.6 50.2----
2024-05-23 06:54 am S 7.0 8.9----30.13- 49.6 50.2----
2024-05-23 06:48 amSSE 8.0 12.0----30.12- 49.8 50.4----
2024-05-23 06:42 amSSE 8.9 11.1----30.12- 49.8 50.4----
2024-05-23 06:36 amSSE 7.0 11.1----30.12- 49.8 50.4----
2024-05-23 06:30 amSSE 8.9 12.0----30.12- 49.8 50.4----
2024-05-23 06:24 amSSE 8.9 13.0----30.12- 49.8 50.4----
2024-05-23 06:18 amSSE 7.0 9.9----30.12- 49.8 50.4----
2024-05-23 06:12 amSSE 8.9 12.0----30.12- 49.6 50.4----
2024-05-23 06:06 amSSE 7.0 11.1----30.11- 49.5 50.4----
2024-05-23 06:00 amSSE 7.0 9.9----30.11+0.02 49.5 50.4----
2024-05-23 05:54 amSSE 7.0 9.9----30.11- 49.3 50.4----
2024-05-23 05:48 amSSE 5.1 8.9----30.11- 49.3 50.4----
2024-05-23 05:42 am SE 5.1 8.9----30.11- 49.3 50.4----
2024-05-23 05:36 am SE 4.1 8.9----30.11- 49.3 50.4----
2024-05-23 05:30 amSSE 6.0 8.9----30.11- 49.5 50.4----
2024-05-23 05:24 amSSE 6.0 8.9----30.11- 49.5 50.4----
2024-05-23 05:18 amSSE 7.0 9.9----30.11- 49.5 50.4----
2024-05-23 05:12 amSSE 5.1 8.9----30.11- 49.6 50.4----
2024-05-23 05:06 amSSE 7.0 8.9----30.11- 49.6 50.4----
2024-05-23 05:00 amSSE 5.1 7.0----30.11+0.02 49.6 50.4----
2024-05-23 04:54 amSSE 5.1 8.9----30.11- 49.8 50.4----
2024-05-23 04:48 amSSE 6.0 7.0----30.11- 49.8 50.4----
2024-05-23 04:42 amSSE 6.0 7.0----30.11- 49.8 50.4----
2024-05-23 04:36 amSSE 6.0 8.0----30.11- 50.0 50.4----
2024-05-23 04:30 am S 6.0 8.9----30.10- 50.2 50.4----
2024-05-23 04:24 amSSE 4.1 7.0----30.10- 50.2 50.4----
2024-05-23 04:18 amSSE 6.0 8.0----30.10- 50.4 50.4----
2024-05-23 04:12 amSSE 5.1 8.0----30.10- 50.4 50.4----
2024-05-23 04:06 amSSE 6.0 8.0----30.10- 50.5 50.4----
2024-05-23 04:00 amSSE 8.0 9.9----30.10+0.02 50.7 50.4----
2024-05-23 03:54 amSSE 6.0 11.1----30.10- 50.9 50.4----
2024-05-23 03:48 amSSE 7.0 8.9----30.10- 50.9 50.4----
2024-05-23 03:42 amSSE 5.1 8.9----30.10- 51.1 50.4----
2024-05-23 03:36 am S 4.1 9.9----30.10- 50.9 50.4----
2024-05-23 03:30 am S 5.1 8.0----30.10- 50.9 50.4----
2024-05-23 03:24 am S 4.1 6.0----30.10- 50.9 50.4----
2024-05-23 03:18 am S 5.1 8.0----30.09- 50.9 50.4----
2024-05-23 03:12 am S 5.1 8.0----30.09- 50.9 50.4----
2024-05-23 03:06 am S 5.1 8.9----30.09- 50.9 50.4----
2024-05-23 03:00 am S 7.0 8.9----30.09+0.02 51.1 50.4----
2024-05-23 02:54 amSSE 5.1 7.0----30.09- 50.7 50.4----
2024-05-23 02:48 amSSE 5.1 6.0----30.09- 50.9 50.4----
2024-05-23 02:42 am S 5.1 8.0----30.09- 51.1 50.4----
2024-05-23 02:36 am S 5.1 7.0----30.09- 50.9 50.4----
2024-05-23 02:30 am S 5.1 7.0----30.09- 51.1 50.4----
2024-05-23 02:24 amSSE 4.1 8.0----30.09- 51.1 50.4----
2024-05-23 02:18 amSSE 5.1 8.9----30.09- 51.3 50.4----
2024-05-23 02:12 amSSE 4.1 7.0----30.09- 51.1 50.4----
2024-05-23 02:06 amSSE 5.1 6.0----30.09- 51.3 50.4----
2024-05-23 02:00 amSSE 4.1 7.0----30.09+0.03 51.4 50.4----
2024-05-23 01:54 am S 5.1 7.0----30.09- 51.3 50.4----
2024-05-23 01:48 amSSE 5.1 6.0----30.09- 51.3 50.4----
2024-05-23 01:42 am S 4.1 7.0----30.09- 51.6 50.4----
2024-05-23 01:36 amSSE 4.1 7.0----30.09- 51.6 50.4----
2024-05-23 01:30 amSSE 4.1 6.0----30.09- 51.8 50.4----
2024-05-23 01:24 am S 4.1 7.0----30.09- 51.8 50.4----
2024-05-23 01:18 am S 4.1 7.0----30.09- 52.0 50.4----
2024-05-23 01:12 am S 4.1 5.1----30.09- 52.2 50.4----
2024-05-23 01:06 amSSW 4.1 6.0----30.08- 52.3 50.2----
2024-05-23 01:00 am S 5.1 8.9----30.08+0.03 52.9 50.2----
2024-05-23 12:54 am S 4.1 8.0----30.08- 52.9 50.2----
2024-05-23 12:48 amSSW 8.9 12.0----30.08- 53.1 50.2----
2024-05-23 12:42 amSSW 8.0 11.1----30.08- 53.1 50.2----
2024-05-23 12:36 amWSW 5.1 8.0----30.08- 52.2 50.2----
2024-05-23 12:30 amWSW 6.0 8.0----30.07- 51.8 50.2----
2024-05-23 12:24 amWSW 7.0 8.9----30.07- 51.6 50.2----
2024-05-23 12:18 am SW 8.0 9.9----30.07- 51.6 50.2----
2024-05-23 12:12 am SW 8.0 11.1----30.07- 51.8 50.2----
2024-05-23 12:06 am SW 8.0 9.9----30.07- 52.0 50.2----
2024-05-23 12:00 amSSW 8.0 9.9----30.07+0.03 52.2 50.2----
2024-05-22 11:54 pmSSW 6.0 8.9----30.07- 52.2 50.2----
2024-05-22 11:48 pmSSW 8.0 11.1----30.06- 52.3 50.2----
2024-05-22 11:42 pmSSW 8.0 11.1----30.06- 52.3 50.2----
2024-05-22 11:36 pmSSW 6.0 9.9----30.06- 52.2 50.2----
2024-05-22 11:30 pmSSW 8.0 9.9----30.06- 52.2 50.2----
2024-05-22 11:24 pmSSW 7.0 11.1----30.06- 52.0 50.2----
2024-05-22 11:18 pm SW 1.9 5.1----30.06- 51.3 50.2----
2024-05-22 11:12 pmWSW 1.9 7.0----30.06- 51.3 50.2----
2024-05-22 11:06 pmSSW 5.1 7.0----30.06- 51.6 50.2----
2024-05-22 11:00 pmSSW 2.9 6.0----30.06+0.03 51.6 50.2----
2024-05-22 10:54 pmWSW 1.0 2.9----30.06- 51.3 50.2----
2024-05-22 10:48 pm W 1.9 4.1----30.06- 51.1 50.2----
2024-05-22 10:42 pm W 1.9 5.1----30.06- 50.9 50.2----
2024-05-22 10:36 pm SW 2.9 5.1----30.06- 51.3 50.2----
2024-05-22 10:30 pmWSW 1.9 2.9----30.06- 51.1 50.2----
2024-05-22 10:24 pm SW 1.9 2.9----30.06- 51.3 50.2----
2024-05-22 10:18 pmWSW 2.9 4.1----30.06- 51.4 50.2----
2024-05-22 10:12 pm SW 2.9 5.1----30.06- 51.8 50.2----
2024-05-22 10:06 pmWSW 1.0 5.1----30.06- 52.0 50.2----
2024-05-22 10:00 pmSSW 5.1 7.0----30.06+0.03 52.7 50.2----
2024-05-22 09:54 pm SW 7.0 9.9----30.06- 53.1 50.2----
2024-05-22 09:48 pm SW 5.1 11.1----30.06- 53.1 50.2----
2024-05-22 09:42 pm SW 1.9 5.1----30.05- 52.7 50.2----
2024-05-22 09:36 pm SW 2.9 5.1----30.05- 52.5 50.2----
2024-05-22 09:30 pm SW 4.1 6.0----30.05- 52.7 50.2----
2024-05-22 09:24 pm SW 4.1 5.1----30.05- 52.9 50.2----
2024-05-22 09:18 pmWSW 2.9 5.1----30.05- 52.5 50.2----
2024-05-22 09:12 pm SW 2.9 5.1----30.05- 53.1 50.2----
2024-05-22 09:06 pm S 2.9 4.1----30.05- 53.1 50.2----
2024-05-22 09:00 pm S 2.9 4.1----30.04+0.04 53.1 50.2----
2024-05-22 08:54 pmSSW 2.9 4.1----30.04- 53.1 50.2----
2024-05-22 08:48 pm S 2.9 5.1----30.04- 53.1 50.2----
2024-05-22 08:42 pm SW 1.9 4.1----30.04- 52.9 50.2----
2024-05-22 08:36 pmSSW 4.1 6.0----30.04- 52.9 50.2----
2024-05-22 08:30 pm SW 5.1 7.0----30.04- 53.2 50.2----
2024-05-22 08:24 pm SW 4.1 6.0----30.04- 53.4 50.2----
2024-05-22 08:18 pm SW 1.9 5.1----30.04- 53.4 50.2----
2024-05-22 08:12 pm SW 2.9 4.1----30.04- 53.2 50.2----
2024-05-22 08:06 pm S 2.9 6.0----30.04- 53.8 50.2----
2024-05-22 08:00 pmSSW 4.1 6.0----30.03+0.03 53.8 50.2----
2024-05-22 07:54 pm SW 1.9 5.1----30.03- 53.4 50.2----
2024-05-22 07:48 pmSSW 4.1 6.0----30.03- 53.6 50.2----
2024-05-22 07:42 pmSSW 5.1 6.0----30.03- 53.4 50.2----
2024-05-22 07:36 pm S 4.1 5.1----30.03- 53.2 50.2----
2024-05-22 07:30 pm S 2.9 7.0----30.03- 53.2 50.2----
2024-05-22 07:24 pmSSW 5.1 11.1----30.03- 53.6 50.2----
2024-05-22 07:18 pmSSW 7.0 8.9----30.03- 53.2 50.2----
2024-05-22 07:12 pmSSW 5.1 8.0----30.03- 53.4 50.2----
2024-05-22 07:06 pm S 6.0 8.9----30.03- 53.8 50.2----
2024-05-22 07:00 pm S 4.1 8.0----30.02+0.02 53.8 50.2----
2024-05-22 06:54 pm S 5.1 8.9----30.02- 54.5 50.2----
2024-05-22 06:48 pmSSW 6.0 8.9----30.02- 55.2 50.2----
2024-05-22 06:42 pmSSW 7.0 12.0----30.02- 55.9 50.2----
2024-05-22 06:36 pmWSW 9.9 13.0----30.02- 55.9 50.2----
2024-05-22 06:30 pmWSW 12.0 14.0----30.01- 56.3 50.2----
2024-05-22 06:24 pm SW 12.0 14.0----30.01- 55.9 50.2----
2024-05-22 06:18 pm SW 11.1 12.0----30.01- 56.7 50.2----
2024-05-22 06:12 pmSSW 8.0 8.9----30.01- 56.8 50.0----
2024-05-22 06:06 pmSSW 7.0 8.0----30.01- 56.8 50.0----
2024-05-22 06:00 pmSSW 7.0 8.9----30.01+0.01 56.8 50.0----
2024-05-22 05:54 pm SW 1.9 2.9----30.01- 56.5 50.0----
2024-05-22 05:48 pm NE 1.0 1.9----30.01- 54.3 50.0----
2024-05-22 05:42 pm- 0.0 4.1----30.00- 54.0 50.0----
2024-05-22 05:36 pm E 4.1 5.1----30.00- 54.0 50.0----
2024-05-22 05:30 pmESE 5.1 6.0----30.00- 53.8 50.0----
2024-05-22 05:24 pmESE 5.1 6.0----30.00- 53.8 50.0----
2024-05-22 05:18 pm E 4.1 5.1----30.00- 54.9 50.0----
2024-05-22 05:12 pm SE 4.1 5.1----30.00- 56.1 50.0----
2024-05-22 05:06 pmSSE 4.1 6.0----30.00- 55.9 50.0----
2024-05-22 05:00 pmSSE 4.1 6.0----30.00+0.02 55.9 50.0----
2024-05-22 04:54 pmSSE 5.1 8.0----30.00- 55.8 50.0----